When you browse on this site, cookies collect data to enhance your experience and personalize the content and advertising you see.
Visit our Privacy Policy to learn more. By continuing to use the site, you agree to this use of cookies and data.

Previsão horária em Armagh

Hoje, 7 Julho, Terça-feira

Tempo Temperatura Precipitação Vento Pressão Humidade
00:00 +8°C° 0 mm 2 m/s 761 mmHg 95%
01:00 +8°C° 0 mm 2 m/s 761 mmHg 95%
02:00 +8°C° 0 mm 2 m/s 760 mmHg 95%
03:00 +8°C° 0 mm 2 m/s 760 mmHg 95%
04:00 +9°C° 0.3 mm 2 m/s 759 mmHg 96%
05:00 +9°C° 0.3 mm 2 m/s 759 mmHg 96%
06:00 +10°C° 0 mm 1 m/s 759 mmHg 98%
07:00 +10°C° 0.7 mm 1 m/s 758 mmHg 98%
08:00 +11°C° 0.7 mm 1 m/s 758 mmHg 97%
09:00 +11°C° 0.7 mm 1 m/s 758 mmHg 97%
10:00 +10°C° 0.3 mm 2 m/s 757 mmHg 97%
11:00 +10°C° 0.3 mm 2 m/s 757 mmHg 97%
12:00 +10°C° 0.3 mm 2 m/s 756 mmHg 97%
13:00 +10°C° 0.1 mm 2 m/s 756 mmHg 96%
14:00 +12°C° 0.1 mm 2 m/s 756 mmHg 95%
15:00 +12°C° 0.1 mm 2 m/s 756 mmHg 95%
16:00 +12°C° 0.1 mm 2 m/s 755 mmHg 95%
17:00 +12°C° 0.1 mm 2 m/s 755 mmHg 96%
18:00 +12°C° 0.1 mm 2 m/s 754 mmHg 96%
19:00 +12°C° 0.1 mm 2 m/s 755 mmHg 96%
20:00 +12°C° 0.1 mm 2 m/s 755 mmHg 97%
21:00 +10°C° 0.1 mm 2 m/s 756 mmHg 97%
22:00 +10°C° 0 mm 2 m/s 756 mmHg 97%
23:00 +10°C° 0 mm 2 m/s 756 mmHg 97%

Amanhã, 8 Julho, Quarta-feira

Tempo Temperatura Precipitação Vento Pressão Humidade
00:00 +10°C° 0 mm 2 m/s 756 mmHg 97%
01:00 +9°C° 0 mm 2 m/s 756 mmHg 96%
02:00 +10°C° 0 mm 1 m/s 756 mmHg 96%
03:00 +9°C° 0 mm 1 m/s 756 mmHg 96%
04:00 +10°C° 0 mm 1 m/s 756 mmHg 95%
05:00 +10°C° 0 mm 1 m/s 756 mmHg 94%
06:00 +10°C° 0 mm 1 m/s 756 mmHg 94%
07:00 +12°C° 0 mm 1 m/s 756 mmHg 89%
08:00 +13°C° 0 mm 1 m/s 756 mmHg 84%
09:00 +15°C° 0 mm 1 m/s 757 mmHg 79%
10:00 +15°C° 0 mm 1 m/s 757 mmHg 76%
11:00 +16°C° 0 mm 1 m/s 757 mmHg 74%
12:00 +18°C° 0 mm 1 m/s 756 mmHg 71%
13:00 +17°C° 0.1 mm 2 m/s 756 mmHg 74%
14:00 +17°C° 0.1 mm 2 m/s 756 mmHg 76%
15:00 +17°C° 0.1 mm 2 m/s 756 mmHg 79%
16:00 +16°C° 0.5 mm 2 m/s 756 mmHg 84%
17:00 +15°C° 0.5 mm 2 m/s 755 mmHg 89%
18:00 +14°C° 0.5 mm 2 m/s 755 mmHg 94%
19:00 +13°C° 0.1 mm 2 m/s 755 mmHg 95%
20:00 +12°C° 0.1 mm 1 m/s 755 mmHg 96%
21:00 +10°C° 0.1 mm 0 m/s 755 mmHg 97%
22:00 +11°C° 0.1 mm 1 m/s 755 mmHg 97%
23:00 +10°C° 0.1 mm 1 m/s 755 mmHg 97%

Depois de amanhã, 9 Julho, Quinta-feira

Tempo Temperatura Precipitação Vento Pressão Humidade
00:00 +10°C° 0.1 mm 1 m/s 754 mmHg 97%
01:00 +10°C° 0 mm 1 m/s 754 mmHg 97%
02:00 +9°C° 0 mm 1 m/s 754 mmHg 97%
03:00 +9°C° 0 mm 1 m/s 754 mmHg 97%
04:00 +9°C° 0 mm 2 m/s 754 mmHg 97%
05:00 +9°C° 0 mm 2 m/s 754 mmHg 96%
06:00 +9°C° 0 mm 2 m/s 754 mmHg 96%
07:00 +12°C° 0 mm 2 m/s 754 mmHg 94%
08:00 +13°C° 0 mm 2 m/s 754 mmHg 92%
09:00 +13°C° 0 mm 3 m/s 754 mmHg 90%
10:00 +14°C° 0.1 mm 3 m/s 754 mmHg 87%
11:00 +15°C° 0.1 mm 2 m/s 754 mmHg 85%
12:00 +16°C° 0.1 mm 2 m/s 755 mmHg 83%
13:00 +16°C° 0.2 mm 3 m/s 755 mmHg 81%
14:00 +16°C° 0.2 mm 3 m/s 755 mmHg 80%
15:00 +17°C° 0.2 mm 4 m/s 755 mmHg 79%
16:00 +15°C° 0.1 mm 4 m/s 755 mmHg 77%
17:00 +15°C° 0.1 mm 5 m/s 755 mmHg 75%
18:00 +14°C° 0.1 mm 5 m/s 755 mmHg 73%
19:00 +12°C° 0 mm 5 m/s 756 mmHg 76%
20:00 +11°C° 0 mm 4 m/s 756 mmHg 79%
21:00 +8°C° 0 mm 4 m/s 757 mmHg 82%
22:00 +8°C° 0 mm 4 m/s 757 mmHg 85%
23:00 +7°C° 0 mm 4 m/s 757 mmHg 87%

10 Julho, Sexta-feira

Tempo Temperatura Precipitação Vento Pressão Humidade
00:00 +6°C° 0 mm 4 m/s 757 mmHg 90%
01:00 +6°C° 0 mm 4 m/s 758 mmHg 91%
02:00 +6°C° 0 mm 4 m/s 758 mmHg 92%
03:00 +6°C° 0 mm 4 m/s 758 mmHg 92%
04:00 +7°C° 0 mm 4 m/s 758 mmHg 91%
05:00 +8°C° 0 mm 4 m/s 758 mmHg 89%
06:00 +8°C° 0 mm 4 m/s 759 mmHg 87%
07:00 +10°C° 0 mm 4 m/s 759 mmHg 83%
08:00 +12°C° 0 mm 5 m/s 760 mmHg 78%
09:00 +13°C° 0 mm 5 m/s 760 mmHg 74%
10:00 +13°C° 0.1 mm 5 m/s 761 mmHg 74%
11:00 +14°C° 0.1 mm 4 m/s 761 mmHg 73%
12:00 +14°C° 0.1 mm 4 m/s 761 mmHg 73%
13:00 +15°C° 0.4 mm 4 m/s 761 mmHg 74%
14:00 +15°C° 0.4 mm 4 m/s 762 mmHg 75%
15:00 +15°C° 0.4 mm 4 m/s 762 mmHg 76%
16:00 +15°C° 0.2 mm 4 m/s 762 mmHg 76%
17:00 +15°C° 0.2 mm 4 m/s 762 mmHg 76%
18:00 +15°C° 0.2 mm 4 m/s 762 mmHg 76%
19:00 +13°C° 0 mm 3 m/s 763 mmHg 81%
20:00 +11°C° 0 mm 3 m/s 763 mmHg 86%
21:00 +10°C° 0 mm 3 m/s 763 mmHg 91%
22:00 +9°C° 0 mm 2 m/s 764 mmHg 92%
23:00 +8°C° 0 mm 2 m/s 764 mmHg 94%

11 Julho, Sábado

Tempo Temperatura Precipitação Vento Pressão Humidade
00:00 +8°C° 0 mm 2 m/s 764 mmHg 96%
01:00 +7°C° 0 mm 2 m/s 764 mmHg 96%
02:00 +7°C° 0 mm 2 m/s 764 mmHg 96%
03:00 +7°C° 0 mm 2 m/s 764 mmHg 96%
04:00 +7°C° 0 mm 2 m/s 764 mmHg 96%
05:00 +8°C° 0 mm 2 m/s 764 mmHg 95%
06:00 +8°C° 0 mm 2 m/s 764 mmHg 94%
07:00 +10°C° 0 mm 2 m/s 764 mmHg 88%
08:00 +13°C° 0 mm 2 m/s 765 mmHg 82%
09:00 +13°C° 0 mm 3 m/s 765 mmHg 76%
10:00 +15°C° 0 mm 2 m/s 765 mmHg 74%
11:00 +16°C° 0 mm 2 m/s 765 mmHg 71%
12:00 +16°C° 0 mm 2 m/s 765 mmHg 69%
13:00 +17°C° 0 mm 2 m/s 765 mmHg 68%
14:00 +17°C° 0 mm 2 m/s 765 mmHg 68%
15:00 +17°C° 0 mm 2 m/s 765 mmHg 67%
16:00 +17°C° 0 mm 2 m/s 765 mmHg 71%
17:00 +17°C° 0 mm 2 m/s 765 mmHg 74%
18:00 +17°C° 0 mm 2 m/s 765 mmHg 78%
19:00 +15°C° 0 mm 2 m/s 765 mmHg 82%
20:00 +14°C° 0 mm 1 m/s 765 mmHg 86%
21:00 +12°C° 0 mm 1 m/s 765 mmHg 90%
22:00 +12°C° 0 mm 1 m/s 765 mmHg 91%
23:00 +11°C° 0 mm 1 m/s 765 mmHg 91%

12 Julho, Domingo

Tempo Temperatura Precipitação Vento Pressão Humidade
00:00 +11°C° 0 mm 1 m/s 765 mmHg 92%
01:00 +11°C° 0 mm 1 m/s 765 mmHg 91%
02:00 +10°C° 0 mm 2 m/s 765 mmHg 89%
03:00 +10°C° 0 mm 2 m/s 765 mmHg 88%
04:00 +12°C° 0 mm 2 m/s 765 mmHg 86%
05:00 +12°C° 0 mm 2 m/s 765 mmHg 84%
06:00 +12°C° 0 mm 2 m/s 765 mmHg 83%
07:00 +12°C° 0 mm 3 m/s 765 mmHg 81%
08:00 +13°C° 0 mm 3 m/s 765 mmHg 80%
09:00 +14°C° 0 mm 3 m/s 765 mmHg 78%
10:00 +14°C° 0 mm 3 m/s 765 mmHg 78%
11:00 +16°C° 0 mm 3 m/s 765 mmHg 78%
12:00 +16°C° 0 mm 3 m/s 765 mmHg 79%
13:00 +17°C° 0 mm 3 m/s 765 mmHg 78%
14:00 +18°C° 0 mm 3 m/s 765 mmHg 77%
15:00 +19°C° 0 mm 3 m/s 765 mmHg 77%
16:00 +19°C° 0 mm 3 m/s 765 mmHg 79%
17:00 +18°C° 0 mm 3 m/s 765 mmHg 82%
18:00 +17°C° 0 mm 2 m/s 765 mmHg 84%
19:00 +17°C° 0 mm 2 m/s 764 mmHg 87%
20:00 +16°C° 0 mm 2 m/s 764 mmHg 90%
21:00 +15°C° 0 mm 1 m/s 764 mmHg 93%
22:00 +14°C° 0 mm 1 m/s 764 mmHg 93%
23:00 +14°C° 0 mm 2 m/s 764 mmHg 93%
Mostrar mais